Charles City, IA

10:56 PM CST on January 21, 2018 (GMT -0600)
Charles City Municipal

Weather History for KCCY - May, 2013

Change the Weather History Date:

Saturday, May 4, 2013

  Actual Average Record
Temperature  
Mean Temperature 44 °F -  
Max Temperature 55 °F 68 °F 89 °F (1952)
Min Temperature 33 °F 43 °F 31 °F (1954)
Degree Days  
Heating Degree Days 21    
Moisture  
Dew Point 40 °F    
Average Humidity 90    
Maximum Humidity 100    
Minimum Humidity 81    
Precipitation  
Precipitation 0.50 in - - ()
Sea Level Pressure  
Sea Level Pressure 30.02 in    
Wind  
Wind Speed 15 mph (NNE)    
Max Wind Speed 21 mph    
Max Gust Speed 24 mph    
Visibility 8 miles    
Events Rain    
Averages and records for this station are not official NWS values.
T = Trace of Precipitation, MM = Missing Value Source: NWS Daily Summary

Daily Weather History Graph

Daily Weather History Graph

Search for Another Location

Airport or City:

Trip Planner

Search our weather history database for the weather conditions in past years. The results will help you decide how hot, cold, wet, or windy it might be!

Date:

Astronomy

May. 04, 2013 Rise Set
Actual Time 5:59 AM CDT 8:15 PM CDT
Civil Twilight 5:28 AM CDT 8:46 PM CDT
Nautical Twilight 4:49 AM CDT 9:25 PM CDT
Astronomical Twilight 4:06 AM CDT 10:09 PM CDT
Moon 3:06 AM CDT (5/4) 3:06 PM CDT (5/4)
Length of Visible Light 15h 18m
Length of Day
14h 15m
Waning Crescent, 27% of the Moon is Illuminated
May 4
Waning Crescent
May 9
New
May 17
First Quarter
May 24
Full
May 31
Last Quarter

Hourly Weather History & Observations

Time (CDT) Temp. Windchill Dew Point Humidity Pressure Visibility Wind Dir Wind Speed Gust Speed Precip Events Conditions
12:15 AM 33.8 °F 23.9 °F 32.0 °F 93% 30.00 in 9.0 mi North 15.0 mph 21.9 mph N/A Rain Light Rain
12:35 AM 33.8 °F 24.3 °F 32.0 °F 93% 30.02 in - NNE 13.8 mph 21.9 mph N/A Rain Light Rain
12:55 AM 33.8 °F 23.9 °F 32.0 °F 93% 30.00 in 2.5 mi North 15.0 mph 23.0 mph 0.05 in Rain Heavy Rain
1:15 AM 33.8 °F 22.2 °F 32.0 °F 93% 29.99 in 2.5 mi North 20.7 mph - N/A Rain Heavy Rain
1:35 AM 33.8 °F 23.5 °F 32.0 °F 93% 30.00 in 1.8 mi NNE 16.1 mph 24.2 mph N/A Rain Heavy Rain
1:55 AM 33.8 °F 24.3 °F 32.0 °F 93% 30.00 in 1.5 mi North 13.8 mph 20.7 mph 0.37 in Rain Heavy Rain
2:15 AM 33.8 °F 23.5 °F 32.0 °F 93% 29.98 in 6.0 mi North 16.1 mph - N/A Rain Light Rain
2:35 AM 33.8 °F 23.2 °F 32.0 °F 93% 29.98 in 9.0 mi NNE 17.3 mph 23.0 mph N/A Rain Light Rain
2:55 AM 33.8 °F 22.8 °F 32.0 °F 93% 29.97 in 10.0 mi NNE 18.4 mph - 0.01 in   Overcast
3:15 AM 33.8 °F 23.2 °F 32.0 °F 93% 29.98 in 4.0 mi NNE 17.3 mph - N/A Rain Rain
3:35 AM 33.8 °F 23.5 °F 32.0 °F 93% 29.98 in 5.0 mi NNE 16.1 mph - N/A Rain Rain
3:55 AM 33.8 °F 23.5 °F 33.8 °F 100% 29.98 in 5.0 mi NNE 16.1 mph - 0.04 in Rain Light Rain
4:15 AM 33.8 °F 23.9 °F 33.8 °F 100% 29.97 in 7.0 mi NNE 15.0 mph - N/A Rain Light Rain
4:35 AM 33.8 °F 23.5 °F 33.8 °F 100% 29.97 in 9.0 mi NNE 16.1 mph - N/A Rain Light Rain
4:55 AM 35.6 °F 25.9 °F 33.8 °F 93% 29.97 in 10.0 mi NNE 16.1 mph - 0.01 in Rain Light Rain
5:15 AM 35.6 °F 25.9 °F 33.8 °F 93% 29.97 in 10.0 mi NNE 16.1 mph - N/A   Overcast
5:35 AM 35.6 °F 25.9 °F 33.8 °F 93% 29.98 in 10.0 mi NNE 16.1 mph 24.2 mph N/A   Overcast
5:55 AM 35.6 °F 25.5 °F 33.8 °F 93% 29.97 in 9.0 mi NE 17.3 mph - N/A   Overcast
6:15 AM 35.6 °F 25.5 °F 33.8 °F 93% 29.98 in 7.0 mi NE 17.3 mph - N/A   Overcast
6:35 AM 35.6 °F 25.5 °F 33.8 °F 93% 29.98 in 7.0 mi NE 17.3 mph - N/A   Overcast
6:55 AM 35.6 °F 25.5 °F 33.8 °F 93% 29.99 in 7.0 mi NE 17.3 mph - N/A   Overcast
7:15 AM 35.6 °F 25.5 °F 33.8 °F 93% 29.99 in 6.0 mi NE 17.3 mph - N/A   Overcast
7:35 AM 35.6 °F 26.2 °F 33.8 °F 93% 29.99 in 5.0 mi NE 15.0 mph - N/A   Overcast
7:55 AM 35.6 °F 25.9 °F 35.6 °F 100% 29.99 in 5.0 mi NNE 16.1 mph - N/A   Overcast
8:15 AM 35.6 °F 25.5 °F 35.6 °F 100% 29.99 in 5.0 mi NNE 17.3 mph - N/A   Overcast
8:35 AM 37.4 °F 28.2 °F 35.6 °F 93% 29.99 in 6.0 mi NE 16.1 mph - N/A   Overcast
8:55 AM 37.4 °F 28.5 °F 35.6 °F 93% 30.00 in 6.0 mi NE 15.0 mph - N/A   Overcast
9:15 AM 37.4 °F 28.2 °F 35.6 °F 93% 30.00 in 6.0 mi NE 16.1 mph - N/A   Overcast
9:35 AM 39.2 °F 30.8 °F 37.4 °F 93% 30.01 in 7.0 mi NE 15.0 mph - N/A   Overcast
9:55 AM 39.2 °F 31.6 °F 37.4 °F 93% 30.02 in 7.0 mi NE 12.7 mph 19.6 mph N/A   Overcast
10:15 AM 39.2 °F 31.2 °F 37.4 °F 93% 30.03 in 8.0 mi NE 13.8 mph - N/A   Overcast
10:35 AM 41.0 °F 33.9 °F 39.2 °F 93% 30.03 in 8.0 mi NE 12.7 mph - N/A   Overcast
10:55 AM 41.0 °F 33.5 °F 39.2 °F 93% 30.04 in 7.0 mi ENE 13.8 mph - N/A   Overcast
11:15 AM 42.8 °F 36.6 °F 39.2 °F 87% 30.05 in 8.0 mi NE 11.5 mph - N/A   Overcast
11:35 AM 42.8 °F 36.2 °F 41.0 °F 93% 30.05 in 8.0 mi NE 12.7 mph - N/A   Overcast
11:55 AM 44.6 °F 38.8 °F 42.8 °F 93% 30.05 in 8.0 mi NE 11.5 mph - N/A   Overcast
12:15 PM 46.4 °F 41.1 °F 44.6 °F 93% 30.04 in 8.0 mi NE 11.5 mph - N/A   Scattered Clouds
12:35 PM 48.2 °F - 44.6 °F 87% 30.04 in 9.0 mi NE 10.4 mph - N/A   Clear
12:55 PM 50.0 °F - 46.4 °F 87% 30.04 in 8.0 mi NE 10.4 mph - N/A   Scattered Clouds
1:15 PM 50.0 °F - 48.2 °F 94% 30.04 in 8.0 mi NNE 9.2 mph - N/A   Mostly Cloudy
1:35 PM 51.8 °F - 50.0 °F 94% 30.04 in 8.0 mi NNE 10.4 mph - N/A   Mostly Cloudy
1:55 PM 53.6 °F - 50.0 °F 88% 30.03 in 8.0 mi NNE 10.4 mph - N/A   Mostly Cloudy
2:15 PM 53.6 °F - 51.8 °F 94% 30.03 in 8.0 mi North 10.4 mph - N/A   Partly Cloudy
2:35 PM 55.4 °F - 51.8 °F 88% 30.03 in 8.0 mi North 11.5 mph - N/A   Scattered Clouds
2:55 PM 55.4 °F - 51.8 °F 88% 30.03 in 8.0 mi North 11.5 mph - N/A   Mostly Cloudy
3:15 PM 55.4 °F - 51.8 °F 88% 30.03 in 8.0 mi North 11.5 mph - N/A   Scattered Clouds
3:35 PM 55.4 °F - 51.8 °F 88% 30.03 in 8.0 mi NNW 11.5 mph - N/A   Scattered Clouds
3:55 PM 55.4 °F - 51.8 °F 88% 30.02 in 9.0 mi North 12.7 mph - N/A   Mostly Cloudy
4:15 PM 55.4 °F - 51.8 °F 88% 30.02 in 10.0 mi North 15.0 mph - N/A   Scattered Clouds
4:35 PM 55.4 °F - 51.8 °F 88% 30.02 in 10.0 mi North 15.0 mph - N/A   Mostly Cloudy
4:55 PM 55.4 °F - 50.0 °F 82% 30.03 in 4.0 mi North 11.5 mph - N/A Rain Light Rain
5:15 PM 53.6 °F - 50.0 °F 88% 30.03 in 4.0 mi NNW 11.5 mph - N/A Rain Light Rain
5:35 PM 51.8 °F - 48.2 °F 88% 30.03 in 8.0 mi NNW 13.8 mph - N/A   Clear
5:55 PM 51.8 °F - 48.2 °F 88% 30.03 in 9.0 mi North 12.7 mph - 0.02 in   Partly Cloudy
6:15 PM 51.8 °F - 48.2 °F 88% 30.04 in 9.0 mi NNW 15.0 mph - N/A   Partly Cloudy
6:35 PM 50.0 °F - 46.4 °F 87% 30.04 in 10.0 mi North 15.0 mph - N/A   Scattered Clouds
6:55 PM 48.2 °F - 44.6 °F 87% 30.04 in 10.0 mi North 17.3 mph - N/A   Overcast
7:15 PM 48.2 °F - 42.8 °F 82% 30.04 in 10.0 mi North 13.8 mph - N/A   Overcast
7:35 PM 48.2 °F - 42.8 °F 82% 30.05 in 10.0 mi North 15.0 mph - N/A   Mostly Cloudy
7:55 PM 46.4 °F 40.7 °F 42.8 °F 87% 30.05 in 10.0 mi North 12.7 mph - N/A   Mostly Cloudy
8:15 PM 46.4 °F 41.9 °F 42.8 °F 87% 30.06 in 10.0 mi North 9.2 mph - N/A   Scattered Clouds
8:35 PM 46.4 °F 41.5 °F 42.8 °F 87% 30.06 in 10.0 mi North 10.4 mph - N/A   Partly Cloudy
8:55 PM 46.4 °F 41.5 °F 42.8 °F 87% 30.07 in 10.0 mi North 10.4 mph - N/A   Partly Cloudy
9:15 PM 46.4 °F 41.9 °F 41.0 °F 81% 30.07 in 10.0 mi North 9.2 mph - N/A   Mostly Cloudy
9:35 PM 44.6 °F 38.8 °F 41.0 °F 87% 30.07 in 10.0 mi North 11.5 mph - N/A   Overcast
9:55 PM 44.6 °F 39.2 °F 41.0 °F 87% 30.08 in 10.0 mi North 10.4 mph - N/A   Overcast
10:15 PM 44.6 °F 39.7 °F 41.0 °F 87% 30.09 in 10.0 mi North 9.2 mph - N/A   Overcast
10:35 PM 46.4 °F 40.1 °F 41.0 °F 81% 30.08 in 10.0 mi NNE 15.0 mph - N/A   Overcast
10:55 PM 46.4 °F 40.7 °F 41.0 °F 81% 30.08 in 10.0 mi North 12.7 mph - N/A   Overcast
11:15 PM 46.4 °F 40.1 °F 41.0 °F 81% 30.08 in 10.0 mi North 15.0 mph - N/A   Overcast
11:35 PM 46.4 °F 40.4 °F 41.0 °F 81% 30.08 in 10.0 mi NNE 13.8 mph - N/A   Overcast
11:55 PM 46.4 °F 40.1 °F 41.0 °F 81% 30.08 in 10.0 mi NNE 15.0 mph - N/A   Overcast